ECTAK LETC-LETC

Flight info

Callsign ECTAK
Flight time 0h 35m
Altitude 3000
Route VFR
Aircraft C152/L-SDGY/C

Departure

Time 2026-04-19 13:43
Airport Matilla De Los Caños Airfield (LETC)

Arrival

Time 2026-04-19 14:19
Airport Matilla De Los Caños Airfield (LETC)
Time Latitude Longitude Altitude Speed Heading
2026-04-19 13:38 41.53054 -4.92271 2298 ft 0 kts 159°
2026-04-19 13:40 41.53055 -4.92272 2298 ft 2 kts 159°
2026-04-19 13:40 41.53070 -4.92279 2302 ft 2 kts 158°
2026-04-19 13:40 41.53080 -4.92288 2302 ft 0 kts 101°
2026-04-19 13:41 41.53080 -4.92278 2304 ft 7 kts 70°
2026-04-19 13:41 41.53111 -4.92215 2301 ft 4 kts 345°
2026-04-19 13:41 41.53156 -4.92155 2307 ft 22 kts 64°
2026-04-19 13:41 41.53230 -4.91907 2314 ft 20 kts 75°
2026-04-19 13:42 41.53241 -4.91895 2316 ft 4 kts 236°
2026-04-19 13:42 41.53205 -4.91998 2316 ft 32 kts 248°
2026-04-19 13:42 41.53067 -4.92448 2332 ft 66 kts 248°
2026-04-19 13:42 41.52868 -4.93037 2487 ft 68 kts 237°
2026-04-19 13:43 41.52434 -4.93047 2728 ft 82 kts 144°
2026-04-19 13:43 41.52150 -4.92271 2862 ft 96 kts 127°
2026-04-19 13:43 41.51676 -4.91618 2947 ft 104 kts 146°
2026-04-19 13:43 41.51066 -4.91027 2955 ft 111 kts 151°
2026-04-19 13:44 41.50418 -4.90465 2936 ft 114 kts 153°
2026-04-19 13:44 41.49750 -4.89915 2969 ft 109 kts 155°
2026-04-19 13:44 41.49120 -4.89419 3009 ft 106 kts 153°
2026-04-19 13:44 41.48499 -4.88855 2985 ft 111 kts 151°
2026-04-19 13:45 41.47918 -4.88306 3092 ft 97 kts 146°
2026-04-19 13:45 41.47322 -4.87716 2930 ft 116 kts 147°
2026-04-19 13:45 41.46708 -4.87148 3122 ft 99 kts 150°
2026-04-19 13:45 41.46179 -4.86579 3337 ft 92 kts 144°
2026-04-19 13:46 41.45686 -4.86067 3461 ft 95 kts 150°
2026-04-19 13:46 41.45119 -4.85530 3482 ft 103 kts 149°
2026-04-19 13:46 41.44540 -4.84933 3484 ft 105 kts 149°
2026-04-19 13:46 41.43959 -4.84320 3492 ft 109 kts 149°
2026-04-19 13:47 41.43333 -4.83772 3479 ft 109 kts 161°
2026-04-19 13:47 41.42607 -4.83472 3430 ft 109 kts 172°
2026-04-19 13:47 41.41892 -4.83216 3404 ft 102 kts 167°
2026-04-19 13:47 41.41384 -4.82588 3417 ft 106 kts 115°
2026-04-19 13:48 41.41379 -4.81607 3447 ft 105 kts 90°
2026-04-19 13:48 41.41433 -4.80594 3332 ft 117 kts 89°
2026-04-19 13:48 41.41262 -4.79650 3397 ft 95 kts 131°
2026-04-19 13:48 41.40776 -4.79089 3389 ft 90 kts 156°
2026-04-19 13:49 41.40251 -4.78639 3425 ft 86 kts 150°
2026-04-19 13:49 41.39758 -4.78195 3469 ft 88 kts 150°
2026-04-19 13:49 41.39213 -4.77756 3475 ft 97 kts 154°
2026-04-19 13:50 41.38935 -4.77527 3489 ft 100 kts 155°
2026-04-19 13:50 41.38322 -4.77098 3615 ft 103 kts 158°
2026-04-19 13:50 41.37628 -4.76720 3578 ft 108 kts 173°
2026-04-19 13:50 41.36904 -4.76506 3514 ft 101 kts 171°
2026-04-19 13:51 41.36253 -4.76294 3389 ft 97 kts 166°
2026-04-19 13:51 41.35664 -4.75916 3424 ft 92 kts 159°
2026-04-19 13:51 41.35113 -4.75498 3332 ft 92 kts 158°
2026-04-19 13:51 41.34625 -4.75089 3407 ft 79 kts 149°
2026-04-19 13:52 41.34168 -4.74603 3440 ft 93 kts 147°
2026-04-19 13:52 41.33611 -4.74114 3449 ft 100 kts 151°
2026-04-19 13:52 41.33047 -4.73623 3385 ft 91 kts 152°
2026-04-19 13:52 41.32523 -4.73175 3437 ft 91 kts 153°
2026-04-19 13:53 41.31963 -4.72695 3438 ft 103 kts 152°
2026-04-19 13:53 41.31329 -4.72191 3349 ft 104 kts 154°
2026-04-19 13:53 41.30726 -4.71746 3396 ft 91 kts 151°
2026-04-19 13:53 41.30198 -4.71278 3373 ft 92 kts 149°
2026-04-19 13:54 41.29706 -4.70772 3401 ft 88 kts 149°
2026-04-19 13:54 41.29251 -4.70223 3395 ft 92 kts 135°
2026-04-19 13:54 41.28962 -4.69412 3310 ft 102 kts 103°
2026-04-19 13:54 41.28782 -4.68564 3341 ft 91 kts 142°
2026-04-19 13:55 41.28247 -4.68503 3353 ft 83 kts 227°
2026-04-19 13:55 41.28158 -4.69163 3399 ft 78 kts 292°
2026-04-19 13:55 41.28713 -4.69347 3269 ft 104 kts 25°
2026-04-19 13:55 41.29199 -4.68688 3349 ft 89 kts 27°
2026-04-19 13:56 41.29817 -4.68478 3303 ft 94 kts
2026-04-19 13:56 41.30476 -4.68406 3309 ft 95 kts 355°
2026-04-19 13:56 41.31145 -4.68424 3369 ft 101 kts 352°
2026-04-19 13:56 41.31885 -4.68493 3270 ft 112 kts 349°
2026-04-19 13:57 41.32604 -4.68598 3492 ft 99 kts 353°
2026-04-19 13:57 41.33315 -4.68632 3496 ft 104 kts 351°
2026-04-19 13:57 41.34057 -4.68683 3317 ft 109 kts
2026-04-19 13:57 41.34800 -4.68563 3398 ft 98 kts
2026-04-19 13:58 41.35425 -4.68374 3483 ft 98 kts
2026-04-19 13:58 41.36134 -4.68289 3451 ft 106 kts 357°
2026-04-19 13:58 41.36872 -4.68313 3459 ft 108 kts 352°
2026-04-19 13:58 41.37624 -4.68344 3459 ft 109 kts 354°
2026-04-19 13:59 41.38380 -4.68377 3430 ft 108 kts 352°
2026-04-19 13:59 41.39134 -4.68406 3361 ft 111 kts 352°
2026-04-19 13:59 41.39883 -4.68458 3395 ft 103 kts 351°
2026-04-19 13:59 41.40614 -4.68455 3312 ft 106 kts
2026-04-19 14:00 41.41349 -4.68250 3300 ft 112 kts 22°
2026-04-19 14:00 41.41991 -4.67667 3240 ft 112 kts 36°
2026-04-19 14:00 41.42583 -4.66947 3079 ft 118 kts 45°
2026-04-19 14:00 41.43224 -4.66462 3106 ft 105 kts
2026-04-19 14:01 41.43951 -4.66384 3046 ft 104 kts 353°
2026-04-19 14:01 41.44631 -4.66471 3039 ft 94 kts 341°
2026-04-19 14:01 41.45258 -4.66663 3010 ft 90 kts 341°
2026-04-19 14:01 41.45864 -4.66920 3098 ft 90 kts 335°
2026-04-19 14:02 41.46384 -4.67094 3298 ft 80 kts 334°
2026-04-19 14:02 41.46936 -4.67349 3439 ft 91 kts 334°
2026-04-19 14:02 41.47563 -4.67615 3571 ft 96 kts 336°
2026-04-19 14:02 41.48254 -4.67893 3492 ft 113 kts 337°
2026-04-19 14:03 41.49037 -4.68230 3359 ft 119 kts 339°
2026-04-19 14:03 41.49826 -4.68512 3340 ft 115 kts 336°
2026-04-19 14:03 41.50550 -4.68739 3394 ft 100 kts 341°
2026-04-19 14:03 41.51267 -4.68917 3465 ft 110 kts 344°
2026-04-19 14:04 41.51997 -4.69143 3483 ft 112 kts 329°
2026-04-19 14:04 41.52723 -4.69523 3494 ft 112 kts 330°
2026-04-19 14:04 41.53433 -4.69955 3438 ft 111 kts 328°
2026-04-19 14:04 41.54206 -4.70290 3370 ft 118 kts 334°
2026-04-19 14:05 41.54996 -4.70595 3393 ft 114 kts 340°
2026-04-19 14:05 41.55763 -4.70885 3381 ft 118 kts 340°
2026-04-19 14:05 41.56554 -4.71222 3195 ft 119 kts 328°
2026-04-19 14:05 41.57249 -4.71560 3468 ft 103 kts 339°
2026-04-19 14:06 41.58001 -4.71823 3340 ft 116 kts 341°
2026-04-19 14:06 41.58733 -4.72077 3411 ft 107 kts 335°
2026-04-19 14:06 41.59466 -4.72344 3265 ft 120 kts 335°
2026-04-19 14:06 41.60217 -4.72721 3371 ft 107 kts 333°
2026-04-19 14:07 41.60915 -4.73042 3415 ft 110 kts 337°
2026-04-19 14:07 41.61605 -4.73362 3529 ft 94 kts 335°
2026-04-19 14:07 41.62244 -4.73672 3518 ft 107 kts 330°
2026-04-19 14:07 41.62931 -4.74127 3557 ft 110 kts 327°
2026-04-19 14:08 41.63202 -4.74982 3349 ft 122 kts 243°
2026-04-19 14:08 41.62575 -4.75241 3595 ft 102 kts 154°
2026-04-19 14:08 41.62619 -4.74357 3305 ft 126 kts 17°
2026-04-19 14:08 41.63410 -4.74177 3399 ft 112 kts
2026-04-19 14:09 41.64190 -4.73795 3322 ft 118 kts 19°
2026-04-19 14:09 41.64915 -4.73436 3426 ft 111 kts 15°
2026-04-19 14:09 41.65639 -4.73184 3387 ft 112 kts 18°
2026-04-19 14:09 41.66149 -4.72408 3281 ft 119 kts 70°
2026-04-19 14:10 41.65982 -4.71425 3303 ft 103 kts 145°
2026-04-19 14:10 41.65379 -4.71465 3291 ft 92 kts 224°
2026-04-19 14:10 41.65210 -4.72187 3406 ft 88 kts 275°
2026-04-19 14:10 41.65122 -4.73014 3198 ft 105 kts 213°
2026-04-19 14:11 41.64546 -4.73440 3405 ft 90 kts 213°
2026-04-19 14:11 41.63958 -4.73949 3387 ft 101 kts 214°
2026-04-19 14:11 41.63446 -4.74537 3409 ft 95 kts 216°
2026-04-19 14:11 41.62956 -4.75174 3474 ft 99 kts 224°
2026-04-19 14:12 41.62457 -4.75824 3436 ft 100 kts 221°
2026-04-19 14:12 41.61961 -4.76484 3425 ft 106 kts 228°
2026-04-19 14:12 41.61475 -4.77199 3425 ft 98 kts 228°
2026-04-19 14:12 41.61070 -4.77912 3330 ft 103 kts 244°
2026-04-19 14:13 41.60904 -4.78848 3281 ft 94 kts 251°
2026-04-19 14:13 41.60504 -4.79580 3243 ft 93 kts 227°
2026-04-19 14:13 41.60131 -4.80187 3438 ft 83 kts 231°
2026-04-19 14:13 41.59766 -4.80888 3449 ft 93 kts 229°
2026-04-19 14:14 41.59318 -4.81548 3460 ft 102 kts 228°
2026-04-19 14:14 41.58818 -4.82220 3401 ft 100 kts 226°
2026-04-19 14:14 41.58384 -4.82912 3436 ft 96 kts 227°
2026-04-19 14:14 41.57912 -4.83556 3446 ft 96 kts 227°
2026-04-19 14:15 41.57440 -4.84194 3400 ft 101 kts 230°
2026-04-19 14:15 41.57027 -4.84887 3396 ft 91 kts 220°
2026-04-19 14:15 41.56498 -4.85474 3172 ft 106 kts 221°
2026-04-19 14:15 41.55907 -4.85951 3198 ft 99 kts 199°
2026-04-19 14:16 41.55275 -4.86252 3268 ft 86 kts 210°
2026-04-19 14:16 41.54875 -4.86759 3459 ft 71 kts 236°
2026-04-19 14:16 41.54571 -4.87336 3546 ft 80 kts 235°
2026-04-19 14:16 41.54373 -4.88000 3493 ft 70 kts 248°
2026-04-19 14:17 41.54262 -4.88532 3345 ft 53 kts 248°
2026-04-19 14:17 41.54123 -4.88988 3249 ft 56 kts 243°
2026-04-19 14:17 41.53972 -4.89485 3139 ft 53 kts 245°
2026-04-19 14:17 41.53818 -4.89936 2951 ft 52 kts 249°
2026-04-19 14:18 41.53702 -4.90379 2783 ft 52 kts 248°
2026-04-19 14:18 41.53552 -4.90843 2656 ft 56 kts 242°
2026-04-19 14:18 41.53411 -4.91309 2583 ft 50 kts 246°
2026-04-19 14:18 41.53281 -4.91748 2446 ft 53 kts 239°
2026-04-19 14:19 41.53146 -4.92192 2313 ft 44 kts 237°
2026-04-19 14:19 41.53047 -4.92513 2289 ft 35 kts 248°
2026-04-19 14:19 41.52952 -4.92816 2283 ft 24 kts 234°
2026-04-19 14:19 41.52934 -4.92763 2284 ft 20 kts 66°
2026-04-19 14:20 41.53005 -4.92531 2298 ft 28 kts 66°
2026-04-19 14:20 41.53077 -4.92302 2298 ft 22 kts 70°
2026-04-19 14:20 41.53075 -4.92244 2302 ft 1 kts 15°
2026-04-19 14:20 41.53079 -4.92245 2298 ft 0 kts 338°